Regional Weather Roundup
Issued by NWS

Home | Current Version | Previous Version | Text Only | Print | Product List | Glossary On
Versions: 1 2 3 4 5 6 7 8 9 10 11 12 13 14 15 16 17 18 19 20 21 22 23 24 25 26 27 28 29 30 31 32 33 34 35 36 37 38 39 40 41 42 43 44 45 46 47 48 49 50
000
ASUS43 KLSX 120707
RWRMO

WEATHER SUMMARY FOR MISSOURI
NATIONAL WEATHER SERVICE SPRINGFIELD MO
100 AM CST FRI FEB 12 2016

NOTE: "FAIR" INDICATES FEW OR NO CLOUDS BELOW 12,000 FEET WITH NO
       SIGNIFICANT WEATHER AND/OR OBSTRUCTIONS TO VISIBILITY.
       CURRENT SKY AND/OR WEATHER CONDITIONS ARE NOT AVAILABLE FOR
       CHILLICOTHE AND FARMINGTON.

MOZ001>031-035>038-043-044-053-054-120800-
...NORTHERN AND WESTERN MISSOURI...

CITY           SKY/WX    TMP DP  RH WIND       PRES   REMARKS
KANSAS CTY INT CLOUDY    30  22  72 NE6       30.18S WCI  24
KANSAS C DTWN  CLOUDY    31  22  69 E6        30.19S WCI  25
LEE`S SUMMIT   CLOUDY    30  21  69 NE7       30.17F WCI  23
ST JOSEPH      CLOUDY    30  21  69 NE7       30.22R WCI  23
CHILLICOTHE      N/A     27  15  61 E3        30.23F
KIRKSVILLE     CLOUDY    21  15  78 E6        30.22F WCI  13

$$
MOZ066>068-077>081-088>096-101>105-120800-
...SOUTHWEST MISSOURI...

CITY           SKY/WX    TMP DP  RH WIND       PRES   REMARKS
SPRINGFIELD    PTCLDY    33  21  61 S8        30.12F WCI  26
JOPLIN         CLEAR     29  22  75 SW5       30.17F WCI  24

$$
MOZ032>034-039>042-045>050-055>058-069>072-120800-
...CENTRAL MISSOURI...

CITY           SKY/WX    TMP DP  RH WIND       PRES   REMARKS
COLUMBIA       CLOUDY    26  23  88 E7        30.18F WCI  18
JEFFERSON CITY CLOUDY    27  23  85 E6        30.19F WCI  20
ROLLA          PTCLDY    28  20  71 E6        30.13F WCI  22
SEDALIA        CLOUDY    29  23  78 NE6       30.19S WCI  23
WARRENSBURG    CLOUDY    30  23  74 NE6       30.18F WCI  24
OSAGE BEACH    PTCLDY    28  18  64 NE5       30.15F WCI  23

$$
MOZ051-052-059>065-120800-
...EAST CENTRAL MISSOURI...

CITY           SKY/WX    TMP DP  RH WIND       PRES   REMARKS
ST LOUIS INTL  LGT SNOW  25  19  80 SE5       30.23F WCI  19
SPIRIT OF STL  LGT SNOW  25  20  81 E5        30.22F WCI  19
ST CHARLES     CLOUDY    27  17  66 CALM      30.23F

$$
MOZ072>076-082>087-097>100-106>115-120800-
...SOUTH CENTRAL AND SOUTHEAST MISSOURI...

CITY           SKY/WX    TMP DP  RH WIND       PRES   REMARKS
CAPE GIRARDEAU CLOUDY    32  20  61 E8        30.22F WCI  25
FARMINGTON     CLOUDY    26  21  81 NE9       30.18F WCI  17
POPLAR BLUFF   CLOUDY    32  22  66 NE5       30.21F WCI  27
WEST PLAINS    CLOUDY    31  20  63 SE3       30.16F

$$


USA.gov is the U.S. government's official web portal to all federal, state and local government web resources and services.